Retour au catalogue

STARLINK-31181

ActifCommunicationsVLEO
NORAD 58746·PAYLOAD·🇺🇸 United States

Lancé Jan 7, 2024 depuis Cape Canaveral Space Force Station

Loading…

Prochains Passages (prochaines 24 heures)

TLE

FraisSource: CelesTrak SupGP

Époque: Sep 14, 2026, 21:44 UTC

1 58746C 24005U   26257.90604167  .00038637  00000+0  13997-2 0  2570
2 58746  42.9998  78.9272 0001322 272.0854 324.9686 15.27553644    15

Suivez STARLINK-31181 en temps réel avec AllMySat

Download on the App Store